Terminal Aerodrome Forecast
Issued by NWS Mt. Holly, NJ

Home | Current Version | Previous Version | Text Only | Print | Product List | Glossary On
Versions: 1 2 3 4 5 6 7 8 9 10 11 12 13 14 15 16 17 18 19 20 21 22 23 24 25
000
FTUS41 KPHI 240903 AAA
TAFACY
TAF AMD
KACY 240903Z 2409/2506 17017G29KT P6SM -SHRA BKN035 BKN050 OVC080
      WS020/18045KT
     FM241300 16018G32KT 4SM SHRA OVC025 WS020/18045KT
     FM241600 16013G30KT 2SM +SHRA OVC025 WS020/19045KT
     FM242100 17008KT 6SM -SHRA BKN050
     FM250000 18007KT P6SM VCSH BKN050
     FM250500 21004KT P6SM BKN050=

USA.gov is the U.S. government's official web portal to all federal, state and local government web resources and services.